When you browse on this site, cookies collect data to enhance your experience and personalize the content and advertising you see.
Visit our Privacy Policy to learn more. By continuing to use the site, you agree to this use of cookies and data.
  • In France
  • List of Countries
  • For 7 days
  • Water Temperature
  • Satellite Maps
  • Weather Map
  • Weather Widgets
  • user-avatar
    Login

    Hourly Weather Annaba

    Today, 17 November, Saturday

    Time Temperature Precipitation Wind Pressure Humidity
    00:00 +16°C° 0.1 mm 2 mps 760 mmHg 92%
    01:00 +16°C° 0 mm 2 mps 760 mmHg 92%
    02:00 +16°C° 0 mm 2 mps 759 mmHg 92%
    03:00 +15°C° 0 mm 2 mps 759 mmHg 93%
    04:00 +15°C° 0 mm 2 mps 759 mmHg 93%
    05:00 +15°C° 0 mm 2 mps 759 mmHg 92%
    06:00 +15°C° 0 mm 1 mps 758 mmHg 92%
    07:00 +15°C° 0 mm 1 mps 758 mmHg 92%
    08:00 +16°C° 0.1 mm 1 mps 758 mmHg 86%
    09:00 +18°C° 0.1 mm 1 mps 758 mmHg 79%
    10:00 +20°C° 0.1 mm 1 mps 758 mmHg 73%
    11:00 +19°C° 0.1 mm 2 mps 757 mmHg 68%
    12:00 +20°C° 0.1 mm 2 mps 757 mmHg 64%
    13:00 +21°C° 0.1 mm 2 mps 757 mmHg 59%
    14:00 +21°C° 0.1 mm 2 mps 756 mmHg 60%
    15:00 +20°C° 0.1 mm 2 mps 756 mmHg 61%
    16:00 +20°C° 0.1 mm 3 mps 755 mmHg 61%
    17:00 +19°C° 0.5 mm 3 mps 756 mmHg 67%
    18:00 +18°C° 0.5 mm 2 mps 756 mmHg 73%
    19:00 +17°C° 0.5 mm 2 mps 756 mmHg 78%
    20:00 +16°C° 0.3 mm 2 mps 756 mmHg 81%
    21:00 +16°C° 0.3 mm 2 mps 756 mmHg 83%
    22:00 +16°C° 0.3 mm 2 mps 756 mmHg 85%
    23:00 +15°C° 0.2 mm 2 mps 756 mmHg 86%

    Tomorrow, 18 November, Sunday

    Time Temperature Precipitation Wind Pressure Humidity
    00:00 +15°C° 0.2 mm 2 mps 756 mmHg 87%
    01:00 +15°C° 0.2 mm 2 mps 756 mmHg 88%
    02:00 +15°C° 0.1 mm 2 mps 755 mmHg 88%
    03:00 +14°C° 0.1 mm 3 mps 755 mmHg 89%
    04:00 +13°C° 0.1 mm 3 mps 755 mmHg 89%
    05:00 +13°C° 0 mm 3 mps 755 mmHg 88%
    06:00 +13°C° 0 mm 3 mps 755 mmHg 88%
    07:00 +13°C° 0 mm 3 mps 755 mmHg 88%
    08:00 +16°C° 0 mm 3 mps 755 mmHg 81%
    09:00 +17°C° 0 mm 3 mps 755 mmHg 74%
    10:00 +19°C° 0 mm 3 mps 756 mmHg 67%
    11:00 +20°C° 0 mm 2 mps 755 mmHg 62%
    12:00 +21°C° 0 mm 2 mps 755 mmHg 58%
    13:00 +23°C° 0 mm 2 mps 755 mmHg 53%
    14:00 +21°C° 0 mm 2 mps 754 mmHg 55%
    15:00 +21°C° 0 mm 2 mps 754 mmHg 56%
    16:00 +21°C° 0 mm 2 mps 754 mmHg 58%
    17:00 +19°C° 0 mm 2 mps 754 mmHg 64%
    18:00 +18°C° 0 mm 2 mps 754 mmHg 70%
    19:00 +17°C° 0 mm 2 mps 754 mmHg 76%
    20:00 +17°C° 0 mm 2 mps 754 mmHg 75%
    21:00 +17°C° 0 mm 2 mps 754 mmHg 74%
    22:00 +17°C° 0 mm 2 mps 754 mmHg 73%
    23:00 +17°C° 0 mm 2 mps 754 mmHg 72%

    Day after tomorrow, 19 November, Monday

    Time Temperature Precipitation Wind Pressure Humidity
    00:00 +17°C° 0 mm 2 mps 753 mmHg 71%
    01:00 +17°C° 0 mm 3 mps 753 mmHg 70%
    02:00 +16°C° 0 mm 3 mps 752 mmHg 71%
    03:00 +16°C° 0 mm 3 mps 752 mmHg 71%
    04:00 +16°C° 0 mm 3 mps 752 mmHg 71%
    05:00 +16°C° 0 mm 3 mps 751 mmHg 72%
    06:00 +16°C° 0 mm 3 mps 751 mmHg 72%
    07:00 +15°C° 0 mm 4 mps 751 mmHg 73%
    08:00 +17°C° 0 mm 4 mps 751 mmHg 71%
    09:00 +18°C° 0 mm 4 mps 750 mmHg 70%
    10:00 +19°C° 0 mm 4 mps 750 mmHg 68%
    11:00 +20°C° 0.1 mm 5 mps 749 mmHg 62%
    12:00 +21°C° 0.1 mm 5 mps 749 mmHg 56%
    13:00 +23°C° 0.1 mm 5 mps 748 mmHg 51%
    14:00 +22°C° 0.4 mm 4 mps 748 mmHg 54%
    15:00 +21°C° 0.4 mm 4 mps 747 mmHg 56%
    16:00 +21°C° 0.4 mm 3 mps 747 mmHg 59%
    17:00 +20°C° 0.1 mm 4 mps 747 mmHg 61%
    18:00 +19°C° 0.1 mm 4 mps 746 mmHg 63%
    19:00 +18°C° 0.1 mm 4 mps 746 mmHg 65%
    20:00 +16°C° 0.2 mm 5 mps 747 mmHg 67%
    21:00 +16°C° 0.2 mm 5 mps 747 mmHg 70%
    22:00 +15°C° 0.2 mm 5 mps 747 mmHg 72%
    23:00 +15°C° 0.3 mm 4 mps 747 mmHg 72%

    20 November, Tuesday

    Time Temperature Precipitation Wind Pressure Humidity
    00:00 +15°C° 0.3 mm 4 mps 747 mmHg 72%
    01:00 +15°C° 0.3 mm 4 mps 747 mmHg 73%
    02:00 +14°C° 0.1 mm 4 mps 746 mmHg 70%
    03:00 +14°C° 0.1 mm 4 mps 746 mmHg 68%
    04:00 +14°C° 0.1 mm 5 mps 746 mmHg 65%
    05:00 +14°C° 0 mm 5 mps 746 mmHg 65%
    06:00 +14°C° 0 mm 6 mps 746 mmHg 65%
    07:00 +14°C° 0 mm 6 mps 746 mmHg 65%
    08:00 +15°C° 0.1 mm 8 mps 747 mmHg 64%
    09:00 +16°C° 0.1 mm 9 mps 748 mmHg 63%
    10:00 +17°C° 0.1 mm 10 mps 749 mmHg 63%
    11:00 +18°C° 0.1 mm 9 mps 750 mmHg 61%
    12:00 +18°C° 0.1 mm 9 mps 751 mmHg 60%
    13:00 +20°C° 0.1 mm 8 mps 751 mmHg 59%
    14:00 +20°C° 0 mm 7 mps 752 mmHg 58%
    15:00 +20°C° 0 mm 6 mps 752 mmHg 57%
    16:00 +20°C° 0 mm 5 mps 752 mmHg 56%
    17:00 +19°C° 0 mm 4 mps 753 mmHg 61%
    18:00 +18°C° 0 mm 3 mps 754 mmHg 66%
    19:00 +16°C° 0 mm 2 mps 754 mmHg 71%
    20:00 +16°C° 0.1 mm 2 mps 755 mmHg 70%
    21:00 +16°C° 0.1 mm 2 mps 755 mmHg 70%
    22:00 +16°C° 0.1 mm 3 mps 755 mmHg 69%
    23:00 +16°C° 0 mm 3 mps 755 mmHg 69%

    21 November, Wednesday

    Time Temperature Precipitation Wind Pressure Humidity
    00:00 +16°C° 0 mm 3 mps 755 mmHg 68%
    01:00 +14°C° 0 mm 4 mps 755 mmHg 67%
    02:00 +14°C° 0 mm 4 mps 755 mmHg 66%
    03:00 +14°C° 0 mm 4 mps 755 mmHg 66%
    04:00 +14°C° 0 mm 4 mps 755 mmHg 65%
    05:00 +14°C° 0 mm 4 mps 755 mmHg 63%
    06:00 +14°C° 0 mm 4 mps 756 mmHg 62%
    07:00 +14°C° 0 mm 5 mps 756 mmHg 60%
    08:00 +16°C° 0 mm 5 mps 756 mmHg 55%
    09:00 +19°C° 0 mm 5 mps 757 mmHg 50%
    10:00 +21°C° 0 mm 5 mps 757 mmHg 45%
    11:00 +21°C° 0 mm 5 mps 757 mmHg 42%
    12:00 +22°C° 0 mm 5 mps 757 mmHg 40%
    13:00 +23°C° 0 mm 5 mps 757 mmHg 38%
    14:00 +22°C° 0 mm 5 mps 757 mmHg 41%
    15:00 +22°C° 0 mm 5 mps 758 mmHg 44%
    16:00 +21°C° 0 mm 5 mps 758 mmHg 46%
    17:00 +20°C° 0 mm 4 mps 758 mmHg 54%
    18:00 +18°C° 0 mm 4 mps 759 mmHg 61%
    19:00 +17°C° 0 mm 3 mps 760 mmHg 68%
    20:00 +16°C° 0 mm 3 mps 760 mmHg 68%
    21:00 +16°C° 0 mm 3 mps 761 mmHg 69%
    22:00 +16°C° 0 mm 2 mps 761 mmHg 70%
    23:00 +16°C° 0 mm 2 mps 761 mmHg 69%

    22 November, Thursday

    Time Temperature Precipitation Wind Pressure Humidity
    00:00 +15°C° 0 mm 2 mps 761 mmHg 67%
    01:00 +15°C° 0 mm 2 mps 761 mmHg 66%
    02:00 +15°C° 0 mm 2 mps 761 mmHg 64%
    03:00 +14°C° 0 mm 3 mps 761 mmHg 63%
    04:00 +14°C° 0 mm 3 mps 762 mmHg 61%
    05:00 +14°C° 0 mm 3 mps 762 mmHg 60%
    06:00 +14°C° 0 mm 3 mps 762 mmHg 59%
    07:00 +14°C° 0 mm 3 mps 762 mmHg 58%
    08:00 +17°C° 0 mm 3 mps 763 mmHg 54%
    09:00 +19°C° 0 mm 3 mps 763 mmHg 50%
    10:00 +20°C° 0 mm 2 mps 763 mmHg 46%
    11:00 +23°C° 0 mm 2 mps 763 mmHg 43%
    12:00 +24°C° 0 mm 2 mps 762 mmHg 40%
    13:00 +25°C° 0 mm 1 mps 762 mmHg 36%
    14:00 +25°C° 0 mm 1 mps 762 mmHg 37%
    15:00 +25°C° 0 mm 2 mps 762 mmHg 39%
    16:00 +25°C° 0 mm 2 mps 762 mmHg 40%
    17:00 +23°C° 0 mm 2 mps 762 mmHg 42%
    18:00 +21°C° 0 mm 3 mps 762 mmHg 44%
    19:00 +19°C° 0 mm 3 mps 763 mmHg 46%
    20:00 +19°C° 0 mm 3 mps 763 mmHg 47%
    21:00 +18°C° 0 mm 3 mps 763 mmHg 47%
    22:00 +18°C° 0 mm 3 mps 763 mmHg 47%
    23:00 +18°C° 0 mm 3 mps 763 mmHg 46%
    Show more